N5FTL Weather Reports


time (UTC)temp
C
wind
direction
speed
KPH
gust
KPH
rain 1hr
cm
rain 24hr
cm
rain mn
cm
humidity
%
barometer
mb
20260507124640 11 58 0.0 8.0 0.00 0.00 0.00 80 1015.8
20260507124141 11 57 1.6 8.0 0.00 0.00 0.00 80 1015.8
20260507123140 11 47 1.6 11.3 0.00 0.00 0.00 80 1015.6
20260507122140 11 57 0.0 8.0 0.00 0.00 0.00 80 1015.4
20260507121640 11 55 1.6 4.8 0.00 0.00 0.00 80 1015.4
20260507121140 11 56 0.0 4.8 0.00 0.00 0.00 80 1015.3
20260507120640 11 57 1.6 4.8 0.00 0.00 0.00 80 1015.3
20260507120141 11 52 0.0 4.8 0.00 0.00 0.00 80 1015.3
20260507115640 11 52 0.0 4.8 0.00 0.00 0.00 80 1015.4
20260507115140 11 52 0.0 11.3 0.00 0.00 0.00 80 1015.5
20260507114640 11 53 0.0 11.3 0.00 0.00 0.00 80 1015.4
20260507114140 11 43 1.6 11.3 0.00 0.00 0.00 80 1015.2
20260507113640 11 34 0.0 8.0 0.00 0.00 0.00 80 1015.3
20260507113140 11 46 0.0 8.0 0.00 0.00 0.00 80 1015.3
20260507111640 11 74 0.0 0.0 0.00 0.00 0.00 80 1015.2
20260507110640 11 80 0.0 0.0 0.00 0.00 0.00 80 1015.3
20260507110140 11 80 0.0 0.0 0.00 0.00 0.00 80 1015.4
20260507104640 11 80 0.0 0.0 0.00 0.00 0.00 80 1015.5
20260507104140 11 80 0.0 0.0 0.00 0.00 0.00 80 1015.4
20260507103140 11 80 0.0 0.0 0.00 0.00 0.00 80 1015.3
20260507102640 11 80 0.0 0.0 0.00 0.00 0.00 80 1015.5
20260507102140 11 80 0.0 0.0 0.00 0.00 0.00 79 1015.4
20260507101640 11 80 0.0 0.0 0.00 0.00 0.00 79 1015.4
20260507101140 11 80 0.0 0.0 0.00 0.00 0.00 79 1015.5
20260507100640 11 69 0.0 0.0 0.00 0.00 0.00 73 1015.3
20260507100140 11 93 0.0 0.0 0.00 0.00 0.00 74 1015.2
20260507095640 11 104 0.0 0.0 0.00 0.00 0.00 74 1015.2
20260507095140 11 92 0.0 1.6 0.00 0.00 0.00 74 1015.0
20260507094640 11 64 0.0 1.6 0.00 0.00 0.00 74 1014.8
20260507094140 11 60 0.0 0.0 0.00 0.00 0.00 74 1014.7
20260507093141 11 72 0.0 0.0 0.00 0.00 0.00 74 1014.8
20260507092640 11 76 0.0 1.6 0.00 0.00 0.00 74 1014.7
20260507092140 11 73 0.0 1.6 0.00 0.00 0.00 74 1014.8
20260507091640 12 123 0.0 1.6 0.00 0.00 0.00 74 1014.8
20260507091140 11 88 0.0 1.6 0.00 0.00 0.00 74 1014.9
20260507090640 11 89 0.0 0.0 0.00 0.00 0.00 74 1014.8
20260507085640 12 70 0.0 3.2 0.00 0.00 0.00 74 1014.6
20260507085140 12 69 1.6 3.2 0.00 0.00 0.00 75 1014.5
20260507084640 12 66 0.0 1.6 0.00 0.00 0.00 74 1014.3
20260507084140 12 78 0.0 0.0 0.00 0.00 0.00 74 1014.2
20260507083640 12 86 0.0 0.0 0.00 0.00 0.00 74 1014.3
20260507083140 12 79 0.0 0.0 0.00 0.00 0.00 74 1014.2
20260507082640 12 80 0.0 0.0 0.00 0.00 0.00 74 1014.0
20260507082140 12 70 0.0 0.0 0.00 0.00 0.00 74 1014.1
20260507081140 12 75 0.0 3.2 0.00 0.00 0.00 74 1013.7
20260507080640 12 62 0.0 3.2 0.00 0.00 0.00 74 1013.8
20260507080140 12 70 0.0 1.6 0.00 0.00 0.00 74 1013.7
20260507075640 12 80 0.0 1.6 0.00 0.00 0.00 74 1013.8
20260507074640 12 68 0.0 3.2 0.00 0.00 0.00 73 1013.7
20260507073640 13 77 0.0 4.8 0.00 0.00 0.00 73 1013.8
20260507073140 13 74 0.0 4.8 0.00 0.00 0.00 72 1013.5
20260507072640 13 99 0.0 1.6 0.00 0.00 0.00 72 1013.4
20260507072140 13 80 0.0 3.2 0.00 0.00 0.00 72 1013.2
20260507071640 13 74 0.0 3.2 0.00 0.00 0.00 72 1013.1
20260507071140 13 71 0.0 4.8 0.00 0.00 0.00 71 1013.1
20260507070640 13 74 1.6 4.8 0.00 0.00 0.00 71 1013.1
20260507070140 13 71 0.0 4.8 0.00 0.00 0.00 71 1013.0
20260507065640 13 79 0.0 4.8 0.00 0.00 0.00 71 1013.0
20260507065140 13 77 1.6 4.8 0.00 0.00 0.00 71 1013.0
20260507064640 13 80 0.0 4.8 0.00 0.00 0.00 71 1012.8
20260507064140 13 72 0.0 3.2 0.00 0.00 0.00 71 1012.6
20260507063639 13 76 1.6 1.6 0.00 0.00 0.00 70 1012.6
20260507063140 14 72 0.0 1.6 0.00 0.00 0.00 70 1012.8
20260507062640 14 76 0.0 1.6 0.00 0.00 0.00 70 1012.8
20260507062140 14 63 1.6 1.6 0.00 0.00 0.00 70 1012.8
20260507061640 14 78 0.0 1.6 0.00 0.00 0.00 69 1012.7
20260507061140 14 76 0.0 0.0 0.00 0.00 0.00 69 1012.5
20260507060640 14 83 0.0 0.0 0.00 0.00 0.00 69 1012.2
20260507060140 14 84 0.0 1.6 0.00 0.00 0.00 69 1012.2
20260507055140 14 79 0.0 0.0 0.00 0.00 0.00 69 1012.3
20260507054640 14 86 0.0 3.2 0.00 0.00 0.00 69 1012.2
20260507054139 15 89 0.0 3.2 0.00 0.00 0.00 69 1012.2
20260507053640 15 84 0.0 1.6 0.00 0.00 0.00 69 1012.0
20260507053139 15 103 0.0 1.6 0.00 0.00 0.00 69 1011.9
20260507052640 15 132 0.0 1.6 0.00 0.00 0.00 69 1011.9
20260507052139 15 116 0.0 1.6 0.00 0.00 0.00 68 1011.9
20260507051640 15 111 0.0 1.6 0.00 0.00 0.00 68 1011.9
20260507051140 15 124 0.0 1.6 0.00 0.00 0.00 67 1012.0
20260507050640 15 91 0.0 0.0 0.00 0.00 0.00 67 1011.8
20260507050140 15 94 0.0 0.0 0.00 0.00 0.00 67 1011.8
20260507045640 15 81 0.0 0.0 0.00 0.00 0.00 67 1011.7
20260507044640 16 103 0.0 3.2 0.00 0.00 0.00 66 1011.7
20260507044142 16 86 0.0 4.8 0.00 0.00 0.00 66 1011.7
20260507043640 16 75 1.6 4.8 0.00 0.00 0.00 66 1011.6
20260507042639 16 73 0.0 1.6 0.00 0.00 0.00 65 1011.5
20260507042140 16 74 0.0 1.6 0.00 0.00 0.00 65 1011.4
20260507041639 16 83 0.0 1.6 0.00 0.00 0.00 64 1011.3
20260507041140 16 84 0.0 3.2 0.00 0.00 0.00 64 1011.3
20260507040639 16 77 0.0 4.8 0.00 0.00 0.00 63 1011.3
20260507040139 16 80 0.0 4.8 0.00 0.00 0.00 62 1011.2
20260507035139 17 98 0.0 4.8 0.00 0.00 0.00 60 1010.8
20260507034639 17 91 0.0 4.8 0.00 0.00 0.00 59 1010.7
20260507034139 17 109 0.0 3.2 0.00 0.00 0.00 58 1010.6
20260507033639 17 81 0.0 3.2 0.00 0.00 0.00 58 1010.5
20260507033139 17 81 1.6 3.2 0.00 0.00 0.00 58 1010.3
20260507032140 17 76 0.0 0.0 0.00 0.00 0.00 58 1010.0
20260507031639 17 67 0.0 1.6 0.00 0.00 0.00 57 1009.9
20260507031140 17 76 0.0 9.7 0.00 0.00 0.00 56 1009.9
20260507030640 17 71 0.0 9.7 0.00 0.00 0.00 56 1009.9
20260507025639 18 76 0.0 3.2 0.00 0.00 0.00 56 1009.8
20260507024639 18 75 0.0 11.3 0.00 0.00 0.00 56 1009.7
20260507024139 18 80 1.6 11.3 0.00 0.00 0.00 56 1009.5
20260507023639 18 77 0.0 3.2 0.00 0.00 0.00 56 1009.3
20260507023139 18 81 0.0 4.8 0.00 0.00 0.00 56 1009.1
20260507022639 18 95 0.0 4.8 0.00 0.00 0.00 55 1009.1
20260507022139 18 76 0.0 3.2 0.00 0.00 0.00 55 1009.1
20260507021140 19 89 1.6 4.8 0.00 0.00 0.00 54 1008.8
20260507020640 19 88 1.6 4.8 0.00 0.00 0.00 54 1008.8
20260507015139 20 83 0.0 4.8 0.00 0.00 0.00 54 1008.6
20260507014639 20 82 1.6 4.8 0.00 0.00 0.00 54 1008.5
20260507014139 20 81 0.0 3.2 0.00 0.00 0.00 55 1008.6
20260507013639 21 78 0.0 3.2 0.00 0.00 0.00 55 1008.5
20260507013139 21 77 0.0 3.2 0.00 0.00 0.00 54 1008.4
20260507012639 21 106 0.0 0.0 0.00 0.00 0.00 54 1008.4
20260507012140 21 103 0.0 0.0 0.00 0.00 0.00 54 1008.4
20260507011639 21 90 0.0 0.0 0.00 0.00 0.00 53 1008.4
20260507011139 22 84 0.0 0.0 0.00 0.00 0.00 52 1008.1
20260507010639 22 88 0.0 0.0 0.00 0.00 0.00 52 1008.0
20260507010139 22 122 0.0 3.2 0.00 0.00 0.00 51 1007.9
20260507005639 22 86 0.0 3.2 0.00 0.00 0.00 49 1007.9
20260507004639 22 82 0.0 0.0 0.00 0.00 0.00 47 1007.8
20260507003639 22 86 0.0 1.6 0.00 0.00 0.00 46 1007.7
20260507001639 23 69 0.0 1.6 0.00 0.00 0.00 42 1007.7
20260507001139 23 75 0.0 1.6 0.00 0.00 0.00 41 1007.6
20260507000639 23 43 0.0 1.6 0.00 0.00 0.00 41 1007.6
20260507000139 23 43 0.0 1.6 0.00 0.00 0.00 40 1007.6
20260506235639 23 44 0.0 1.6 0.00 0.00 0.00 40 1007.6
20260506234639 23 62 0.0 1.6 0.00 0.00 0.00 40 1007.5
20260506234139 23 54 0.0 1.6 0.00 0.00 0.00 40 1007.5
20260506233639 23 26 0.0 1.6 0.00 0.00 0.00 40 1007.5
20260506233139 23 76 0.0 1.6 0.00 0.00 0.00 40 1007.5
20260506232139 24 60 0.0 1.6 0.00 0.00 0.00 41 1007.4
20260506231639 24 83 0.0 1.6 0.00 0.00 0.00 40 1007.2
20260506231139 24 87 0.0 3.2 0.00 0.00 0.00 39 1007.2
20260506230639 24 85 0.0 3.2 0.00 0.00 0.00 39 1007.2
20260506230139 25 70 0.0 0.0 0.00 0.00 0.00 39 1007.1
20260506225639 24 103 0.0 0.0 0.00 0.00 0.00 40 1007.1
20260506225139 24 83 0.0 0.0 0.00 0.00 0.00 40 1007.1
20260506224639 24 69 0.0 0.0 0.00 0.00 0.00 40 1007.0
20260506224140 24 68 0.0 0.0 0.00 0.00 0.00 39 1007.2
20260506223639 24 108 0.0 0.0 0.00 0.00 0.00 41 1007.2
20260506223139 24 58 0.0 0.0 0.00 0.00 0.00 39 1007.1
20260506222639 24 64 0.0 0.0 0.00 0.00 0.00 39 1007.3
20260506222139 24 40 0.0 0.0 0.00 0.00 0.00 39 1007.3
20260506221639 24 80 0.0 0.0 0.00 0.00 0.00 40 1007.3
20260506221139 25 74 0.0 0.0 0.00 0.00 0.00 40 1007.4
20260506220639 24 256 0.0 0.0 0.00 0.00 0.00 40 1007.4
20260506215639 25 67 0.0 0.0 0.00 0.00 0.00 40 1007.4
20260506215139 25 62 0.0 0.0 0.00 0.00 0.00 40 1007.4
20260506214639 24 165 0.0 0.0 0.00 0.00 0.00 41 1007.3
20260506214139 23 101 0.0 0.0 0.00 0.00 0.00 43 1007.4
20260506213639 23 74 0.0 0.0 0.00 0.00 0.00 43 1007.4
20260506213139 23 41 0.0 0.0 0.00 0.00 0.00 44 1007.5
20260506212639 22 77 0.0 0.0 0.00 0.00 0.00 45 1007.6
20260506210139 22 19 0.0 1.6 0.00 0.00 0.00 47 1007.7
20260506205139 21 17 0.0 1.6 0.00 0.00 0.00 49 1007.7
20260506204639 21 38 0.0 0.0 0.00 0.00 0.00 48 1007.7
20260506204139 21 40 0.0 0.0 0.00 0.00 0.00 47 1007.9
20260506203639 21 34 0.0 0.0 0.00 0.00 0.00 48 1008.0
20260506203139 21 64 0.0 0.0 0.00 0.00 0.00 47 1008.1
20260506202639 21 80 0.0 0.0 0.00 0.00 0.00 48 1008.1
20260506202139 21 30 0.0 0.0 0.00 0.00 0.00 47 1008.1
20260506201139 22 357 0.0 0.0 0.00 0.00 0.00 46 1008.2
20260506200138 21 35 0.0 0.0 0.00 0.00 0.00 46 1008.3
20260506195638 22 338 0.0 0.0 0.00 0.00 0.00 47 1008.4
20260506195139 21 83 0.0 0.0 0.00 0.00 0.00 47 1008.4
20260506193638 21 78 0.0 1.6 0.00 0.00 0.00 48 1008.6
20260506193139 21 98 0.0 1.6 0.00 0.00 0.00 50 1008.6
20260506192638 20 266 0.0 3.2 0.00 0.00 0.00 51 1008.7
20260506192138 20 91 0.0 12.9 0.00 0.00 0.00 51 1008.9
20260506191638 20 242 0.0 12.9 0.00 0.00 0.00 52 1009.0
20260506191139 20 7 0.0 3.2 0.00 0.00 0.00 53 1008.9
20260506190139 20 37 0.0 1.6 0.00 0.00 0.00 53 1009.0
20260506185638 20 31 0.0 1.6 0.00 0.00 0.00 53 1009.0
20260506185139 19 98 0.0 1.6 0.00 0.00 0.00 54 1009.1
20260506184138 19 6 0.0 1.6 0.00 0.00 0.00 55 1009.2
20260506183638 19 34 0.0 3.2 0.00 0.00 0.00 56 1009.2
20260506183138 19 29 0.0 3.2 0.00 0.00 0.00 56 1009.2
20260506182138 19 28 0.0 3.2 0.00 0.00 0.00 55 1009.2
20260506181638 19 84 0.0 0.0 0.00 0.00 0.00 55 1009.4
20260506181139 19 341 0.0 0.0 0.00 0.00 0.00 54 1009.4
20260506180638 18 202 0.0 0.0 0.00 0.00 0.00 57 1009.4
20260506180138 18 67 0.0 1.6 0.00 0.00 0.00 58 1009.5
20260506175638 18 0 0.0 3.2 0.00 0.00 0.00 60 1009.6
20260506175139 17 53 0.0 3.2 0.00 0.00 0.00 60 1009.5
20260506174138 17 37 0.0 9.7 0.00 0.00 0.00 60 1009.7
20260506173638 17 44 0.0 9.7 0.00 0.00 0.00 62 1009.7
20260506173138 17 14 0.0 1.6 0.00 0.00 0.00 62 1009.7
20260506172638 17 16 0.0 1.6 0.00 0.00 0.00 62 1009.6
20260506172138 17 74 0.0 3.2 0.00 0.00 0.00 62 1009.6
20260506171138 16 37 0.0 4.8 0.00 0.00 0.00 63 1009.5
20260506170638 16 327 0.0 1.6 0.00 0.00 0.00 63 1009.5
20260506170138 16 28 0.0 4.8 0.00 0.00 0.00 62 1009.5
20260506165138 16 3 0.0 4.8 0.00 0.00 0.00 62 1009.4
20260506164638 17 352 0.0 4.8 0.00 0.00 0.00 63 1009.4
20260506163638 16 21 0.0 4.8 0.00 0.00 0.00 65 1009.3
20260506163138 16 53 0.0 3.2 0.00 0.00 0.00 64 1009.2
20260506162138 16 28 0.0 8.0 0.00 0.00 0.00 65 1009.2
20260506161638 16 43 0.0 8.0 0.00 0.00 0.00 65 1009.2
20260506161138 16 33 0.0 8.0 0.00 0.00 0.00 66 1009.2
20260506160638 15 20 0.0 3.2 0.00 0.00 0.00 67 1009.1
20260506155638 15 29 0.0 4.8 0.00 0.00 0.00 68 1009.3
20260506155138 15 50 0.0 19.3 0.00 0.00 0.00 69 1009.3
20260506154638 14 17 0.0 19.3 0.00 0.00 0.00 70 1009.1
20260506154138 13 25 0.0 3.2 0.00 0.00 0.00 70 1009.1
20260506152138 12 13 1.6 14.5 0.00 0.00 0.00 72 1009.0
20260506151637 12 60 0.0 3.2 0.00 0.00 0.00 71 1009.0
20260506150137 12 16 0.0 4.8 0.00 0.00 0.00 72 1008.9
20260506145637 12 48 0.0 4.8 0.00 0.00 0.00 72 1008.9
20260506145137 12 62 1.6 4.8 0.00 0.00 0.00 72 1009.0
20260506144637 12 358 0.0 3.2 0.00 0.00 0.00 72 1009.0
20260506144138 12 51 0.0 16.1 0.00 0.00 0.00 73 1009.0
20260506143637 12 34 0.0 16.1 0.00 0.00 0.00 73 1009.1
20260506143138 12 40 0.0 11.3 0.00 0.00 0.00 73 1009.1
20260506142637 12 11 0.0 11.3 0.00 0.00 0.00 73 1009.1
20260506141637 12 51 0.0 1.6 0.00 0.00 0.00 73 1009.1
20260506141137 12 45 0.0 3.2 0.00 0.00 0.00 73 1009.2
20260506140637 12 42 0.0 3.2 0.00 0.00 0.00 73 1009.1
20260506135638 11 58 0.0 3.2 0.00 0.00 0.00 73 1008.8
20260506134138 11 63 0.0 1.6 0.00 0.00 0.00 73 1008.7
20260506133637 11 18 0.0 1.6 0.00 0.00 0.00 73 1008.3
20260506133137 11 348 0.0 1.6 0.00 0.00 0.00 73 1008.2
20260506132637 12 55 0.0 3.2 0.00 0.00 0.00 73 1007.8
20260506132138 12 353 0.0 3.2 0.00 0.00 0.00 73 1007.6
20260506131637 12 45 0.0 1.6 0.00 0.00 0.00 73 1007.4
20260506131138 12 17 0.0 1.6 0.00 0.00 0.00 73 1007.2
20260506130637 12 42 0.0 12.9 0.00 0.00 0.00 73 1007.2
20260506130137 12 10 0.0 12.9 0.00 0.00 0.00 74 1006.9
20260506125637 12 49 8.0 14.5 0.00 0.00 0.00 76 1007.1
20260506125137 12 52 3.2 20.9 0.00 0.00 0.00 76 1007.2